Regional Weather Roundup
Issued by NWS

Home | Current Version | Previous Version | Graphics & Text | Print | Product List | Glossary On
Versions: 1 2 3 4 5 6 7 8 9 10 11 12 13 14 15 16 17 18 19 20 21 22 23 24 25 26 27 28 29 30 31 32 33 34 35 36 37 38 39 40 41 42 43 44 45 46 47 48 49 50
000
ASUS43 KIND 232359
RWRIN

WEATHER ROUNDUP FOR INDIANA
NATIONAL WEATHER SERVICE INDIANAPOLIS IN
800 PM EDT SUN JUL 23 2017

NOTE: "FAIR" INDICATES FEW OR NO CLOUDS BELOW 12,000 FEET WITH NO
SIGNIFICANT WEATHER AND/OR OBSTRUCTIONS TO VISIBILITY.

* - STATION DOES NOT REPORT WEATHER SUCH AS PRECIPITATION OR FOG.

+ - STATION NOT QUALITY CONTROLLED BY THE NATIONAL WEATHER SERVICE.
    USE DATA WITH CAUTION...ESPECIALLY DEWPOINT AND RELATIVE
    HUMIDITY OBSERVATIONS.

INZ001>003-010>013-019-020-240100-
NORTHWEST INDIANA

CITY           SKY/WX    TMP DP  RH WIND       PRES   REMARKS
GARY /AIRPORT/ PTSUNNY   81  63  54 N9G21     29.81R
MICHIGAN CITY+ DRIZZLE   73  64  73 N10       29.82R
MONTICELLO +   SUNNY     82  71  67 W7        29.80S
6HR MIN TEMP:  80; 6HR MAX TEMP:  85;

RENSSELAER +   SUNNY     79  70  73 SW5       29.80S

$$

LMZ046-743>745-240100-
SOUTHERN LAKE MICHIGAN

STATION/POSITION TIME  TEMP    WIND        PRES    WAVE
                       AIR SEA DIR/SP/G            HT
                 (UTC) (F)     (DEG/KT/KT) (MB)    (FT)
BURNS HARBOR     2340   76     340/ 11/ 16 1010.2F
MICHIGAN CITY    2330   77      10/ 13/ 14   N/A
5NW MICH CITY    2350   77 76  360/  8/ 12   N/A     1

$$

INZ004-005-014>016-021>024-240100-
NORTH CENTRAL INDIANA

CITY           SKY/WX    TMP DP  RH WIND       PRES   REMARKS
GOSHEN         MOSUNNY   80  60  50 N7        29.78S
6HR MIN TEMP:  80; 6HR MAX TEMP:  86; 6HR PCP:  0.01;

SOUTH BEND     MOSUNNY   78  63  59 N5        29.79S
6HR MIN TEMP:  77; 6HR MAX TEMP:  86;


$$

INZ006>009-017-018-025>027-240100-
NORTHEAST INDIANA

CITY           SKY/WX    TMP DP  RH WIND       PRES   REMARKS
FORT WAYNE     CLOUDY    81  69  67 W7        29.79R
6HR MIN TEMP:  76; 6HR MAX TEMP:  86; 6HR PCP: TRACE;

KENDALLVILLE + SUNNY     79  66  63 NW3       29.80R

$$

INZ028-029-035-036-043>045-051>053-240100-
WEST CENTRAL INDIANA

CITY           SKY/WX    TMP DP  RH WIND       PRES   REMARKS
LAFAYETTE      SUNNY     82  72  71 W5        29.80S
6HR MIN TEMP:  75; 6HR MAX TEMP:  87;

TERRE HAUTE    SUNNY     84  70  62 NW5       29.83R
6HR MIN TEMP:  81; 6HR MAX TEMP:  88;


$$

INZ030>032-037>040-046>048-054>057-064-065-240100-
CENTRAL INDIANA

CITY           SKY/WX    TMP DP  RH WIND       PRES   REMARKS
GREENWOOD *+   MOSUNNY  N/A N/A N/A W5        29.84R
INDIANAPOLIS   MOSUNNY   81  72  74 SW5       29.82R
6HR MIN TEMP:  70; 6HR MAX TEMP:  86; 6HR PCP:  0.09;

-EAGLE CREEK   SUNNY     81  72  74 VRB3      29.82R
6HR MIN TEMP:  72; 6HR MAX TEMP:  86; 6HR PCP:  0.13;

KOKOMO +         N/A     80  71  74 MISG      29.82
6HR MIN TEMP:  69; 6HR MAX TEMP:  85;

MT COMFORT *+  MOSUNNY   79  73  83 CALM      29.84R
SHELBYVILLE    MOSUNNY   81  69  67 W7        29.81S
6HR MIN TEMP:  77; 6HR MAX TEMP:  86; 6HR PCP:  0.01;


$$

INZ033-034-041-042-049-050-058-059-240100-
EAST CENTRAL INDIANA

CITY           SKY/WX    TMP DP  RH WIND       PRES   REMARKS
MUNCIE         PTSUNNY   78  65  63 W6        29.82R
6HR MIN TEMP:  78; 6HR MAX TEMP:  86; 6HR PCP: TRACE;

RICHMOND +     CLEAR     77  66  69 W8        29.82S

$$

INZ060-061-067>069-081>083-085>088-240100-
SOUTHWEST INDIANA

CITY           SKY/WX    TMP DP  RH WIND       PRES   REMARKS
EVANSVILLE     PTSUNNY   85  70  60 W5        29.84S
6HR MIN TEMP:  82; 6HR MAX TEMP:  89;

HUNTINGBURG *+ MOSUNNY   83  75  77 W6        29.83F
6HR MIN TEMP:  79; 6HR MAX TEMP:  86;


$$

INZ062-063-066-070>080-084-089>092-240100-
SOUTH CENTRAL AND SOUTHEAST INDIANA

CITY           SKY/WX    TMP DP  RH WIND       PRES   REMARKS
BLOOMINGTON    TSTM      78  66  66 NE25      29.86R
6HR MIN TEMP:  78; 6HR MAX TEMP:  85; 6HR PCP:  0.10;

MADISON *+     MOSUNNY   75  68  78 CALM      29.85S
SEYMOUR +      SUNNY    N/A N/A N/A CALM      29.82F

$$





USA.gov is the U.S. government's official web portal to all federal, state and local government web resources and services.